Hourly Data Report for September 26, 2017

All times are specified in Local Standard Time (LST). Add 1 hour to adjust for Daylight Saving Time where and when it is observed.

ST. PETERS
PRINCE EDWARD ISLAND

46°27'01.000" N
62°34'33.000" W
29.70 m
8300562
71310
ZSP

Download Data

Hourly Data (September 2017)
Hourly Data Report for September 26, 2017
Temp Definition
°C
Dew Point Temp Definition
°C
Rel Hum Definition
%
Wind Dir Definition
10's deg

Wind Spd Definition
km/h
Visibility Definition
km
Stn Press Definition
kPa
Hmdx Definition


Wind Chill Definition


Weather Definition


TIME
00:00 19.5 17.2 87 20 23   101.05     LegendNANA
01:00 19.8 17.4 86 21 27   101.01     LegendNANA
02:00 19.3 17.1 87 21 26   100.98     LegendNANA
03:00 19.1 17.1 88 21 27   100.92     LegendNANA
04:00 19.8 17.4 86 22 30   100.86     LegendNANA
05:00 19.2 17.1 88 22 22   100.88     LegendNANA
06:00 18.9 17.1 90 22 23   100.89     LegendNANA
07:00 19.3 17.4 89 22 24   100.88     LegendNANA
08:00 20.6 18.0 85 22 21   100.87 27   LegendNANA
09:00 22.1 18.4 80 22 18   100.87 28   LegendNANA
10:00 25.0 19.2 71 24 16   100.85 32   LegendNANA
11:00 26.4 18.0 60 27 26   100.84 32   LegendNANA
12:00 26.3 18.1 61 27 26   100.83 32   LegendNANA
13:00 27.0 18.4 59 28 24   100.86 33   LegendNANA
14:00 26.4 18.6 63 28 24   100.88 33   LegendNANA
15:00 19.2 15.8 81 36 18   101.03     LegendNANA
16:00 17.6 14.8 84 3 16   101.08     LegendNANA
17:00 16.6 14.5 88 3 14   101.16     LegendNANA
18:00 15.8 13.6 87 4 18   101.28     LegendNANA
19:00 14.7 12.0 84 4 17   101.39     LegendNANA
20:00 14.3 11.1 81 4 17   101.44     LegendNANA
21:00 14.2 11.0 81 5 13   101.48     LegendNANA
22:00 13.9 10.4 79 5 13   101.55     LegendNANA
23:00 13.6 9.7 77 5 15   101.53     LegendNANA

Notes on Data Quality.

Legend

  • E = Estimated
  • M = Missing
  • NA = Not Available
  • ‡ = Partner data that is not subject to review by the National Climate Archives
Date modified: